Location: Plock
(52.5500°N, 19.7000°E)
Time: 23:40:53
(UTC+01:00)

ISS - Visible Passes

Search period start: 21 January 2018 00:00
Search period end: 31 January 2018 00:00
Orbit: 402 x 407 km, 51.6° (Epoch: 22 January)

Date Brightness Start Highest point End Pass type
(mag) Time Alt. Az. Time Alt. Az. Time Alt. Az.
26 Jan -1.0 18:56:01 10° SSW 18:56:24 12° SSW 18:56:24 12° SSW visible
27 Jan -1.8 18:04:24 10° S 18:06:25 17° SSE 18:06:25 17° SSE visible
28 Jan -1.4 17:13:35 10° SSE 17:14:29 11° SE 17:15:22 10° ESE visible
28 Jan -2.1 18:47:13 10° SW 18:49:02 27° SSW 18:49:02 27° SSW visible
29 Jan -2.5 17:55:11 10° SSW 17:58:02 28° SSE 17:58:54 24° ESE visible
29 Jan -0.7 19:30:57 10° WSW 19:31:34 15° WSW 19:31:34 15° WSW visible
30 Jan -1.9 17:03:25 10° SSW 17:05:49 19° SE 17:08:14 10° E visible
30 Jan -3.2 18:38:38 10° WSW 18:41:23 50° SSW 18:41:23 50° SSW visible
